Cincinnati, OH

6:23 PM EDT on March 29, 2017 (GMT -0400)
Cincinnati Municipal-Lunken

Weather History for KLUK - November, 2013

Change the Weather History Date:

Saturday, November 16, 2013

  Actual Average Record
Temperature  
Mean Temperature 54 °F -  
Max Temperature 61 °F 54 °F 74 °F (1958)
Min Temperature 46 °F 33 °F 19 °F (1967)
Degree Days  
Heating Degree Days 12    
Growing Degree Days 4 (Base 50)    
Moisture  
Dew Point 49 °F    
Average Humidity 86    
Maximum Humidity 93    
Minimum Humidity 77    
Precipitation  
Precipitation 0.00 in - - ()
Sea Level Pressure  
Sea Level Pressure 30.07 in    
Wind  
Wind Speed 5 mph (South)    
Max Wind Speed 14 mph    
Max Gust Speed 22 mph    
Visibility 10 miles    
Events      
Averages and records for this station are not official NWS values.
T = Trace of Precipitation, MM = Missing Value Source: NWS Daily Summary

Daily Weather History Graph

Daily Weather History Graph

Search for Another Location

Airport or City:

Trip Planner

Search our weather history database for the weather conditions in past years. The results will help you decide how hot, cold, wet, or windy it might be!

Date:

Astronomy

Nov. 16, 2013 Rise Set
Actual Time 7:22 AM EST 5:22 PM EST
Civil Twilight 6:53 AM EST 5:51 PM EST
Nautical Twilight 6:21 AM EST 6:23 PM EST
Astronomical Twilight 5:49 AM EST 6:55 PM EST
Moon 4:56 PM EST (11/16) 6:17 AM EST (11/16)
Length of Visible Light 10h 57m
Length of Day
10h 00m
Waxing Gibbous, 99% of the Moon is Illuminated
Nov 16
Waxing Gibbous
Nov 17
Full
Nov 25
Last Quarter
Dec 2
New
Dec 9
First Quarter

Hourly Weather History & Observations

Time (EST) Temp. Dew Point Humidity Pressure Visibility Wind Dir Wind Speed Gust Speed Precip Events Conditions
12:53 AM 46.9 °F 44.1 °F 90% 30.14 in 10.0 mi SW 3.5 mph - N/A   Overcast
1:53 AM 48.0 °F 44.1 °F 86% 30.12 in 10.0 mi SSW 4.6 mph - N/A   Overcast
2:53 AM 48.9 °F 44.1 °F 83% 30.12 in 10.0 mi SW 3.5 mph - N/A   Overcast
3:53 AM 48.0 °F 45.0 °F 89% 30.12 in 10.0 mi SSW 4.6 mph - N/A   Overcast
4:25 AM 48.2 °F 44.6 °F 87% 30.12 in 10.0 mi SSW 4.6 mph - N/A   Overcast
4:53 AM 48.9 °F 45.0 °F 86% 30.13 in 10.0 mi South 3.5 mph - N/A   Overcast
5:12 AM 48.2 °F 46.4 °F 93% 30.12 in 10.0 mi Calm Calm - N/A   Overcast
5:53 AM 48.0 °F 46.0 °F 93% 30.13 in 10.0 mi South 6.9 mph - N/A   Overcast
6:28 AM 48.2 °F 46.4 °F 93% 30.13 in 10.0 mi South 3.5 mph - N/A   Overcast
6:36 AM 48.2 °F 46.4 °F 93% 30.13 in 10.0 mi SSE 4.6 mph - N/A   Overcast
6:53 AM 48.0 °F 46.0 °F 93% 30.13 in 10.0 mi South 5.8 mph - N/A   Overcast
7:53 AM 48.0 °F 46.0 °F 93% 30.15 in 10.0 mi South 5.8 mph - N/A   Overcast
8:28 AM 48.2 °F 46.4 °F 93% 30.15 in 10.0 mi South 5.8 mph - N/A   Overcast
8:53 AM 48.9 °F 46.9 °F 93% 30.16 in 8.0 mi South 4.6 mph - N/A   Overcast
9:53 AM 50.0 °F 48.0 °F 93% 30.17 in 10.0 mi South 9.2 mph - N/A   Overcast
10:53 AM 51.1 °F 48.9 °F 92% 30.15 in 10.0 mi South 4.6 mph - N/A   Overcast
11:53 AM 53.1 °F 50.0 °F 89% 30.12 in 10.0 mi South 8.1 mph - N/A   Overcast
12:04 PM 53.6 °F 50.0 °F 88% 30.11 in 10.0 mi South 6.9 mph - N/A   Overcast
12:53 PM 54.0 °F 51.1 °F 90% 30.07 in 10.0 mi SSE 6.9 mph - N/A   Overcast
1:53 PM 57.0 °F 52.0 °F 83% 30.06 in 10.0 mi South 6.9 mph - N/A   Overcast
2:53 PM 57.9 °F 53.1 °F 84% 30.04 in 10.0 mi South 5.8 mph - N/A   Overcast
3:53 PM 59.0 °F 53.1 °F 81% 30.02 in 10.0 mi South 9.2 mph - N/A   Overcast
4:53 PM 59.0 °F 53.1 °F 81% 30.01 in 10.0 mi South 8.1 mph - N/A   Overcast
5:53 PM 59.0 °F 53.1 °F 81% 30.00 in 10.0 mi SSE 5.8 mph - N/A   Overcast
6:53 PM 59.0 °F 53.1 °F 81% 29.99 in 10.0 mi SSE 5.8 mph - N/A   Overcast
7:42 PM 59.0 °F 53.6 °F 82% 29.97 in 10.0 mi Variable 5.8 mph - N/A   Overcast
7:53 PM 59.0 °F 53.1 °F 81% 29.98 in 10.0 mi South 6.9 mph - N/A   Overcast
8:53 PM 60.1 °F 53.1 °F 78% 29.96 in 10.0 mi South 6.9 mph 17.3 mph N/A   Overcast
9:53 PM 61.0 °F 54.0 °F 78% 29.94 in 10.0 mi South 13.8 mph 21.9 mph N/A   Overcast
10:53 PM 60.1 °F 54.0 °F 80% 29.94 in 10.0 mi South 9.2 mph 18.4 mph N/A   Overcast
11:02 PM 60.8 °F 53.6 °F 77% 29.94 in 10.0 mi South 11.5 mph - N/A   Overcast
11:53 PM 60.1 °F 54.0 °F 80% 29.95 in 10.0 mi South 11.5 mph - N/A   Overcast